Terminal Aerodrome Forecast
Issued by NWS Houston/Galveston, TX

Home | Current Version | Previous Version | Text Only | Print | Product List | Glossary On
Versions: 1 2 3 4 5 6 7 8 9 10 11 12 13 14 15 16 17 18 19 20 21 22 23 24 25 26 27 28 29 30 31 32 33 34 35 36 37 38
000
FTUS44 KHGX 152324
TAFCLL
TAF
KCLL 152324Z 1600/1624 09005KT P6SM SCT040
     FM160300 VRB03KT P6SM BKN250
     FM161500 09006KT P6SM BKN035 BKN250
     FM162100 09008KT P6SM VCTS BKN040CB BKN250=

USA.gov is the U.S. government's official web portal to all federal, state and local government web resources and services.